TimeCDT,TemperatureF,Dew PointF,Humidity,Sea Level PressureIn,VisibilityMPH,Wind Direction,Wind SpeedMPH,Gust SpeedMPH,PrecipitationIn,Events,Conditions,WindDirDegrees,DateUTC
12:54 AM,37.0,30.0,76,30.22,10.0,South,6.9,-,N/A,,Mostly Cloudy,170,2012-10-13 05:54:00
1:54 AM,37.0,30.9,79,30.19,10.0,South,6.9,-,N/A,,Clear,180,2012-10-13 06:54:00
2:54 AM,35.1,30.9,85,30.16,10.0,SE,4.6,-,N/A,,Clear,130,2012-10-13 07:54:00
3:54 AM,37.0,32.0,82,30.14,10.0,SE,5.8,-,N/A,,Overcast,140,2012-10-13 08:54:00
4:54 AM,37.0,34.0,89,30.11,10.0,SE,8.1,-,0.00,,Overcast,140,2012-10-13 09:54:00
5:54 AM,37.9,35.1,89,30.08,7.0,SSE,5.8,-,0.01,Rain,Rain,150,2012-10-13 10:54:00
6:06 AM,37.4,35.6,93,30.04,6.0,SE,8.1,-,0.00,Rain,Light Rain,140,2012-10-13 11:06:00
6:33 AM,37.4,35.6,93,30.03,8.0,SSE,8.1,-,0.00,Rain,Light Rain,160,2012-10-13 11:33:00
6:54 AM,37.9,37.0,97,30.06,8.0,SSE,6.9,-,0.00,Rain,Light Rain,160,2012-10-13 11:54:00
7:54 AM,39.9,37.9,93,30.01,3.0,SSE,11.5,17.3,0.01,Rain,Light Rain,150,2012-10-13 12:54:00
8:02 AM,39.2,37.4,93,29.97,2.0,SSE,9.2,16.1,0.00,Rain,Light Rain,160,2012-10-13 13:02:00
8:54 AM,39.9,39.0,97,29.97,2.0,SSE,10.4,-,0.00,,Overcast,150,2012-10-13 13:54:00
9:05 AM,41.0,39.2,93,29.93,1.8,SSE,8.1,-,N/A,,Overcast,150,2012-10-13 14:05:00
9:54 AM,42.1,41.0,96,29.94,2.0,SSE,8.1,-,N/A,,Overcast,160,2012-10-13 14:54:00
10:12 AM,42.8,41.0,93,29.90,1.8,SSE,8.1,-,N/A,,Overcast,160,2012-10-13 15:12:00
10:20 AM,42.8,41.0,93,29.91,2.5,South,9.2,-,N/A,,Overcast,170,2012-10-13 15:20:00
10:54 AM,44.1,42.1,93,29.91,2.0,South,10.4,-,N/A,,Overcast,170,2012-10-13 15:54:00
11:32 AM,44.6,42.8,93,29.87,4.0,South,8.1,-,0.00,,Overcast,170,2012-10-13 16:32:00
11:54 AM,45.0,43.0,93,29.90,10.0,South,4.6,-,0.00,,Overcast,180,2012-10-13 16:54:00
12:54 PM,46.0,44.1,93,29.84,10.0,South,4.6,-,0.00,,Overcast,170,2012-10-13 17:54:00
1:51 PM,46.4,44.6,93,29.77,10.0,SSE,3.5,-,N/A,,Overcast,160,2012-10-13 18:51:00
1:54 PM,46.0,44.1,93,29.80,10.0,South,4.6,-,N/A,,Overcast,180,2012-10-13 18:54:00
2:54 PM,46.0,45.0,96,29.79,10.0,South,5.8,-,0.00,Rain,Light Rain,190,2012-10-13 19:54:00
3:54 PM,46.9,45.0,93,29.76,10.0,Calm,Calm,-,0.00,Rain,Light Rain,0,2012-10-13 20:54:00
4:54 PM,46.9,45.0,93,29.75,10.0,Calm,Calm,-,0.00,,Overcast,0,2012-10-13 21:54:00
5:54 PM,46.9,45.0,93,29.77,10.0,Calm,Calm,-,N/A,,Overcast,0,2012-10-13 22:54:00
6:54 PM,46.0,45.0,96,29.77,5.0,Calm,Calm,-,N/A,,Overcast,0,2012-10-13 23:54:00
7:54 PM,46.0,45.0,96,29.78,1.0,Calm,Calm,-,N/A,,Overcast,0,2012-10-14 00:54:00
7:58 PM,46.4,44.6,93,29.75,3.0,Calm,Calm,-,N/A,,Overcast,0,2012-10-14 00:58:00
9:33 PM,46.4,44.6,93,29.76,6.0,Calm,Calm,-,N/A,,Overcast,0,2012-10-14 02:33:00
10:09 PM,46.4,44.6,93,29.76,7.0,North,4.6,-,N/A,,Overcast,350,2012-10-14 03:09:00